Regional Weather Roundup
Issued by NWS

Home | Current Version | Previous Version | Text Only | Print | Product List | Glossary On
Versions: 1 2 3 4 5 6 7 8 9 10 11 12 13 14 15 16 17 18 19 20 21 22 23 24 25 26 27 28 29 30 31 32 33 34 35 36 37 38 39 40 41 42 43 44 45 46 47 48 49 50
000
ASUS44 KLIX 270712
RWRLA
LOUISIANA WEATHER ROUNDUP
NATIONAL WEATHER SERVICE NEW ORLEANS LA
200 AM CDT MON APR 27 2015

NOTE: "FAIR" INDICATES FEW OR NO CLOUDS BELOW 12,000 FEET WITH NO
      SIGNIFICANT WEATHER AND/OR OBSTRUCTIONS TO VISIBILITY.
      SKY/WX - SKY CONDITION AND SIGNIFICANT WEATHER.
      TMP - AIR TEMPERATURE.    DP   - DEWPOINT TEMPERATURE.
      RH  - RELATIVE HUMIDITY.  PRES - PRESSURE.
      HX  - HEAT INDEX.         WCI  - WIND CHILL INDEX.

*  THESE STATIONS ARE NOT NWS OR FAA STATIONS AND ARE NOT UNDER
   NWS QUALITY CONTROL.

LAZ040-048-061>063-065-066-069-270800-
SOUTHEAST LOUISIANA

CITY           SKY/WX    TMP DP  RH WIND       PRES   REMARKS
N.O. AUDUBON     N/A     76  75  99 MISG        N/A
N.O. INTL ARPT CLOUDY    75  71  87 SE7       29.70F
N.O. LAKEFRONT CLOUDY    78  73  84 E6        29.71F HAZE
SLIDELL        CLOUDY    70  70 100 CALM      29.70F
BATON ROUGE    MOCLDY    71  69  93 NE3       29.70F
BOOTHVILLE     FOG       73  72  96 E3        29.70F VSB 1/4
BELLE CHASSE   CLOUDY    72  70  93 CALM      29.70F FOG
BOGALUSA*        N/A     66  64  90 CALM      29.73F FOG
GALLIANO*      CLOUDY    75  73  94 S3        29.69S FOG
NEW ROADS*     FAIR      71  68  92 CALM      29.70S
GONZALES*      FAIR      71  71 100 CALM      29.69F FOG
HAMMOND*       MOCLDY    72  68  88 CALM      29.71F
HOUMA*         CLOUDY    74  73  98 NE6       29.69F FOG
PORT FOURCHON* SUNNY     77  75  94 E7        29.71F FOG

$$

LAZ041-044-053-054-270800-
SOUTHWEST LOUISIANA

CITY           SKY/WX    TMP DP  RH WIND       PRES   REMARKS
LAKE CHARLES   MOCLDY    74  73  97 E6        29.64F FOG
LAFAYETTE      MOCLDY    74  72  93 CALM      29.68S FOG
PATTERSON      CLOUDY    73  72  94 E7        29.68F
SALT POINT       N/A     74  73  97 CALM      29.65F
NEW IBERIA     MOCLDY    75  73  93 E9        29.68F FOG
CHENAULT AIRPK MOCLDY    73  72  98 E5        29.66S FOG

$$

LAZ027-028-270800-
CENTRAL LOUISIANA

CITY           SKY/WX    TMP DP  RH WIND       PRES   REMARKS
FORT POLK      MOCLDY    71  68  93 E5        29.69R
ALEXANDRIA INT MOCLDY    69  68  96 NE6       29.69S
ALEXANDRIA     PTCLDY    69  68  96 NE6       29.71S FOG

$$

LAZ001-002-270800-
NORTHWEST LOUISIANA

CITY           SKY/WX    TMP DP  RH WIND       PRES   REMARKS
SHREVEPORT     CLOUDY    69  63  81 NE18      29.76R
BARKSDALE AFB  CLOUDY    67  62  82 NE10      29.77R
DTN SHREVEPORT CLOUDY    67  60  78 NE9G21    29.78R

$$

LAZ014-016-270800-
NORTHEAST LOUISIANA

CITY           SKY/WX    TMP DP  RH WIND       PRES   REMARKS
MONROE         MOCLDY    62  57  83 NE10      29.82R
TALLULAH       PTCLDY    64  60  87 NE8       29.78R

$$




USA.gov is the U.S. government's official web portal to all federal, state and local government web resources and services.